• In Belarus
  • List of Countries
  • For 7 days
  • Water Temperature
  • Satellite Maps
  • Weather Map
  • Weather Widgets
  • user-avatar
    Login

    Hourly Weather Braga

    Today, 18 September, Tuesday

    Time Temperature Precipitation Wind Pressure Humidity
    00:00 +20°C° 0 mm 1 mps 751 mmHg 71%
    01:00 +18°C° 0 mm 0 mps 751 mmHg 71%
    02:00 +18°C° 0 mm 0 mps 751 mmHg 71%
    03:00 +17°C° 0 mm 0 mps 751 mmHg 72%
    04:00 +17°C° 0 mm 0 mps 751 mmHg 72%
    05:00 +17°C° 0 mm 0 mps 751 mmHg 72%
    06:00 +19°C° 0 mm 0 mps 751 mmHg 67%
    07:00 +21°C° 0 mm 0 mps 752 mmHg 62%
    08:00 +23°C° 0 mm 0 mps 752 mmHg 57%
    09:00 +27°C° 0 mm 1 mps 752 mmHg 53%
    10:00 +28°C° 0 mm 2 mps 752 mmHg 50%
    11:00 +29°C° 0 mm 2 mps 752 mmHg 46%
    12:00 +29°C° 0 mm 3 mps 752 mmHg 46%
    13:00 +29°C° 0 mm 3 mps 752 mmHg 47%
    14:00 +29°C° 0 mm 3 mps 751 mmHg 47%
    15:00 +28°C° 0 mm 3 mps 752 mmHg 53%
    16:00 +26°C° 0 mm 3 mps 752 mmHg 59%
    17:00 +25°C° 0 mm 2 mps 752 mmHg 66%
    18:00 +23°C° 0 mm 2 mps 752 mmHg 72%
    19:00 +21°C° 0 mm 2 mps 753 mmHg 79%
    20:00 +20°C° 0 mm 1 mps 753 mmHg 86%
    21:00 +20°C° 0 mm 1 mps 753 mmHg 86%
    22:00 +20°C° 0 mm 1 mps 753 mmHg 87%
    23:00 +19°C° 0 mm 1 mps 753 mmHg 88%

    Tomorrow, 19 September, Wednesday

    Time Temperature Precipitation Wind Pressure Humidity
    00:00 +19°C° 0 mm 1 mps 753 mmHg 88%
    01:00 +19°C° 0 mm 1 mps 753 mmHg 88%
    02:00 +18°C° 0 mm 1 mps 753 mmHg 88%
    03:00 +18°C° 0 mm 1 mps 753 mmHg 86%
    04:00 +18°C° 0 mm 1 mps 753 mmHg 84%
    05:00 +18°C° 0 mm 1 mps 754 mmHg 83%
    06:00 +20°C° 0 mm 1 mps 754 mmHg 71%
    07:00 +23°C° 0 mm 1 mps 754 mmHg 59%
    08:00 +25°C° 0 mm 1 mps 754 mmHg 48%
    09:00 +27°C° 0 mm 1 mps 754 mmHg 42%
    10:00 +29°C° 0 mm 2 mps 754 mmHg 36%
    11:00 +31°C° 0 mm 2 mps 754 mmHg 30%
    12:00 +31°C° 0 mm 3 mps 754 mmHg 30%
    13:00 +31°C° 0 mm 3 mps 754 mmHg 31%
    14:00 +31°C° 0 mm 3 mps 753 mmHg 32%
    15:00 +29°C° 0 mm 3 mps 753 mmHg 40%
    16:00 +27°C° 0 mm 3 mps 753 mmHg 49%
    17:00 +26°C° 0 mm 3 mps 753 mmHg 57%
    18:00 +24°C° 0 mm 2 mps 754 mmHg 64%
    19:00 +23°C° 0 mm 2 mps 754 mmHg 71%
    20:00 +20°C° 0 mm 2 mps 755 mmHg 78%
    21:00 +20°C° 0 mm 2 mps 754 mmHg 79%
    22:00 +20°C° 0 mm 1 mps 754 mmHg 79%
    23:00 +20°C° 0 mm 1 mps 754 mmHg 80%

    Day after tomorrow, 20 September, Thursday

    Time Temperature Precipitation Wind Pressure Humidity
    00:00 +20°C° 0 mm 1 mps 754 mmHg 79%
    01:00 +20°C° 0 mm 1 mps 754 mmHg 78%
    02:00 +19°C° 0 mm 1 mps 753 mmHg 78%
    03:00 +19°C° 0 mm 1 mps 753 mmHg 77%
    04:00 +19°C° 0 mm 1 mps 753 mmHg 77%
    05:00 +19°C° 0 mm 1 mps 753 mmHg 77%
    06:00 +21°C° 0 mm 1 mps 753 mmHg 68%
    07:00 +23°C° 0 mm 1 mps 754 mmHg 60%
    08:00 +25°C° 0 mm 1 mps 754 mmHg 51%
    09:00 +27°C° 0 mm 1 mps 754 mmHg 45%
    10:00 +28°C° 0 mm 2 mps 754 mmHg 39%
    11:00 +30°C° 0 mm 3 mps 753 mmHg 33%
    12:00 +30°C° 0 mm 3 mps 753 mmHg 34%
    13:00 +30°C° 0 mm 3 mps 753 mmHg 35%
    14:00 +29°C° 0 mm 3 mps 753 mmHg 36%
    15:00 +28°C° 0 mm 3 mps 753 mmHg 45%
    16:00 +26°C° 0 mm 3 mps 753 mmHg 53%
    17:00 +24°C° 0 mm 2 mps 753 mmHg 62%
    18:00 +23°C° 0 mm 2 mps 753 mmHg 70%
    19:00 +21°C° 0 mm 1 mps 754 mmHg 78%
    20:00 +20°C° 0 mm 1 mps 754 mmHg 86%
    21:00 +19°C° 0 mm 1 mps 754 mmHg 87%
    22:00 +19°C° 0 mm 1 mps 754 mmHg 88%
    23:00 +19°C° 0 mm 1 mps 754 mmHg 89%

    21 September, Friday

    Time Temperature Precipitation Wind Pressure Humidity
    00:00 +18°C° 0 mm 1 mps 754 mmHg 89%
    01:00 +18°C° 0 mm 1 mps 754 mmHg 88%
    02:00 +18°C° 0 mm 1 mps 754 mmHg 87%
    03:00 +18°C° 0 mm 1 mps 754 mmHg 86%
    04:00 +18°C° 0 mm 1 mps 754 mmHg 85%
    05:00 +18°C° 0 mm 1 mps 754 mmHg 83%
    06:00 +20°C° 0 mm 1 mps 754 mmHg 76%
    07:00 +22°C° 0 mm 1 mps 755 mmHg 69%
    08:00 +25°C° 0 mm 1 mps 755 mmHg 62%
    09:00 +26°C° 0 mm 1 mps 755 mmHg 59%
    10:00 +28°C° 0 mm 2 mps 755 mmHg 55%
    11:00 +29°C° 0 mm 2 mps 755 mmHg 52%
    12:00 +29°C° 0 mm 3 mps 755 mmHg 51%
    13:00 +30°C° 0 mm 3 mps 754 mmHg 50%
    14:00 +30°C° 0 mm 4 mps 754 mmHg 49%
    15:00 +29°C° 0 mm 4 mps 754 mmHg 54%
    16:00 +27°C° 0 mm 3 mps 754 mmHg 59%
    17:00 +26°C° 0 mm 3 mps 754 mmHg 64%
    18:00 +25°C° 0 mm 3 mps 755 mmHg 69%
    19:00 +22°C° 0 mm 3 mps 755 mmHg 74%
    20:00 +21°C° 0 mm 2 mps 755 mmHg 78%
    21:00 +21°C° 0 mm 2 mps 755 mmHg 78%
    22:00 +21°C° 0 mm 2 mps 755 mmHg 78%
    23:00 +21°C° 0 mm 2 mps 755 mmHg 79%

    22 September, Saturday

    Time Temperature Precipitation Wind Pressure Humidity
    00:00 +20°C° 0 mm 2 mps 755 mmHg 78%
    01:00 +20°C° 0 mm 2 mps 755 mmHg 77%
    02:00 +20°C° 0 mm 2 mps 755 mmHg 76%
    03:00 +20°C° 0 mm 2 mps 756 mmHg 75%
    04:00 +20°C° 0 mm 2 mps 756 mmHg 75%
    05:00 +20°C° 0 mm 2 mps 756 mmHg 74%
    06:00 +23°C° 0 mm 2 mps 756 mmHg 67%
    07:00 +25°C° 0 mm 2 mps 756 mmHg 60%
    08:00 +27°C° 0 mm 2 mps 756 mmHg 52%
    09:00 +29°C° 0 mm 2 mps 756 mmHg 46%
    10:00 +32°C° 0 mm 2 mps 756 mmHg 40%
    11:00 +35°C° 0 mm 2 mps 756 mmHg 34%
    12:00 +35°C° 0 mm 2 mps 756 mmHg 32%
    13:00 +36°C° 0 mm 3 mps 755 mmHg 31%
    14:00 +36°C° 0 mm 3 mps 755 mmHg 30%
    15:00 +34°C° 0 mm 3 mps 755 mmHg 35%
    16:00 +31°C° 0 mm 3 mps 755 mmHg 40%
    17:00 +30°C° 0 mm 3 mps 755 mmHg 44%
    18:00 +28°C° 0 mm 3 mps 755 mmHg 47%
    19:00 +27°C° 0 mm 3 mps 756 mmHg 50%
    20:00 +26°C° 0 mm 2 mps 756 mmHg 53%
    21:00 +25°C° 0 mm 2 mps 756 mmHg 53%
    22:00 +25°C° 0 mm 2 mps 756 mmHg 53%
    23:00 +25°C° 0 mm 2 mps 756 mmHg 53%

    23 September, Sunday

    Time Temperature Precipitation Wind Pressure Humidity
    00:00 +25°C° 0 mm 2 mps 756 mmHg 54%
    01:00 +24°C° 0 mm 2 mps 756 mmHg 54%
    02:00 +24°C° 0 mm 3 mps 756 mmHg 54%
    03:00 +24°C° 0 mm 2 mps 756 mmHg 55%
    04:00 +23°C° 0 mm 2 mps 756 mmHg 56%
    05:00 +23°C° 0 mm 2 mps 756 mmHg 56%
    06:00 +25°C° 0 mm 2 mps 756 mmHg 51%
    07:00 +28°C° 0 mm 2 mps 756 mmHg 46%
    08:00 +30°C° 0 mm 2 mps 756 mmHg 41%
    09:00 +31°C° 0 mm 3 mps 756 mmHg 39%
    10:00 +33°C° 0 mm 4 mps 757 mmHg 36%
    11:00 +35°C° 0 mm 4 mps 757 mmHg 33%
    12:00 +35°C° 0 mm 4 mps 756 mmHg 34%
    13:00 +35°C° 0 mm 5 mps 756 mmHg 34%
    14:00 +35°C° 0 mm 5 mps 756 mmHg 34%
    15:00 +33°C° 0 mm 5 mps 756 mmHg 39%
    16:00 +32°C° 0 mm 4 mps 756 mmHg 44%
    17:00 +29°C° 0 mm 4 mps 756 mmHg 49%
    18:00 +28°C° 0 mm 4 mps 756 mmHg 53%
    19:00 +26°C° 0 mm 4 mps 757 mmHg 57%
    20:00 +23°C° 0 mm 4 mps 757 mmHg 62%
    21:00 +23°C° 0 mm 4 mps 757 mmHg 65%
    22:00 +22°C° 0 mm 4 mps 757 mmHg 69%
    23:00 +21°C° 0 mm 4 mps 757 mmHg 72%
    Show more